#timestamp,LO_Frequency,Hit,StdDev 
1512709215.8,286046997.7,N
1512709235.7,286046997.2,N
1512709255.5,286046996.9,N
1512709275.3,286046995.5,N
1512709295.2,286046991.7,Y
1512709315.0,286046993.4,P
1512709315.9,286046993.4,N
1512709335.8,286046996.7,N
1512709355.6,286046999.5,N
1512709375.4,286046998.4,N
1512709395.3,286046999.6,N
1512709415.1,286046997.8,N
1512709435.8,286046995.2,N
1512709455.7,286046997.0,N
1512709475.5,286046998.9,N
1512709495.4,286046998.4,N
1512709515.2,286046998.9,N
1512709535.0,286046998.1,N
1512709535.9,286046998.1,N
1512709555.8,286046998.2,N
1512709575.6,286046999.4,N
1512709595.5,286046998.1,N
1512709615.3,286047000.7,N
1512709635.1,286046997.1,N
1512709655.9,286046993.3,Y
1512709675.7,286046997.4,P
1512709695.5,286046996.9,P
1512709715.4,286046997.9,P
1512709765.3,286046998.6,E
1512709775.2,286047002.4,N
1512709795.0,286047005.7,P
1512709795.9,286047005.7,P
1512709815.8,286047005.3,Y
1512709835.6,286047002.1,P
1512709855.4,286047002.0,N
1512709875.3,286046999.2,N
1512709895.1,286046996.5,N
1512709915.8,286046997.3,N
1512709935.7,286046995.5,N
1512709955.5,286046994.9,N
1512709975.7,286046998.7,N
1512709995.5,286046996.6,N
1512710015.4,286046996.5,N
1512710035.2,286046998.3,N
1512710055.0,286047002.4,N
1512710055.9,286047002.4,N
1512710075.8,286047002.8,N
1512710095.6,286047000.5,N
1512710115.5,286046996.5,N
1512710135.3,286046997.3,N
1512710155.1,286046997.9,N
1512710175.9,286046995.2,N
1512710195.7,286046998.0,N
1512710215.5,286046994.9,N
1512710235.4,286046996.8,N
1512710255.2,286046997.1,N
1512710275.1,286046996.6,N
1512710276.0,286046996.6,N
1512710295.8,286046999.0,N
1512710315.6,286046996.1,N
1512710335.5,286046994.1,N
1512710355.3,286046994.0,N
1512710375.2,286046996.8,N
1512710395.9,286046998.0,N
1512710415.7,286046994.9,N
1512710435.6,286046993.6,N
1512710455.4,286046995.7,N
1512710475.2,286046997.8,N
1512710495.1,286046999.5,N
1512710496.0,286046999.5,N
1512710515.8,286046997.3,N
1512710535.7,286046998.4,N
1512710555.5,286047000.4,N
1512710575.3,286046996.7,N
1512710595.2,286046997.2,N
1512710615.0,286046999.1,N
1512710615.9,286046999.1,N
1512710635.8,286047000.4,N
1512710655.6,286047004.3,N
1512710675.4,286047001.4,N
1512710695.3,286047002.7,N
1512710715.1,286047001.9,N
1512710735.9,286046999.1,N
1512710755.7,286047000.3,N
1512710775.5,286047000.4,N
1512710795.4,286047000.0,N
1512710815.2,286046999.9,N
1512710835.0,286047002.8,N
1512710835.9,286047002.8,N
1512710855.8,286047002.0,N
1512710875.6,286046998.7,N
1512710895.5,286046997.0,N
1512710915.3,286046999.0,N
1512710935.1,286047002.6,N
1512710955.9,286047003.8,N
1512710975.7,286047003.2,N
1512710995.6,286047002.4,N
1512711015.4,286047000.9,N
1512711035.2,286046998.2,N
1512711055.1,286046997.5,N
1512711056.0,286046997.5,N
1512711075.8,286046996.1,N
1512711095.6,286046997.7,N
1512711115.5,286046997.3,N
1512711135.3,286046997.4,N
1512711155.2,286046994.9,N
1512711175.9,286046997.0,N
1512711195.7,286046998.8,N
1512711215.6,286047000.9,N
1512711235.4,286046998.3,N
1512711255.3,286046998.1,N
1512711275.1,286046996.8,N
1512711276.0,286046996.8,N
1512711295.8,286046997.0,N
1512711315.7,286046997.0,N
1512711335.5,286046997.9,N
1512711355.3,286046995.4,N
1512711375.2,286046995.0,N
1512711395.0,286046996.5,N
1512711395.9,286046996.5,N
1512711415.8,286046999.0,N
1512711435.6,286046997.5,N
1512711455.4,286046996.1,N
1512711475.3,286046997.8,N
1512711495.1,286047001.2,N
1512711515.9,286047002.4,N
1512711535.7,286047003.0,N
1512711555.5,286047004.3,N
1512711575.4,286047001.8,N
1512711595.2,286047003.9,N
1512711615.1,286047004.1,N
1512711616.0,286047004.1,N
1512711635.8,286047001.3,N
1512711655.6,286047002.2,N
1512711675.5,286047000.1,N
1512711695.3,286047000.7,N
1512711715.1,286047004.4,N
1512711735.9,286047002.6,N
1512711755.7,286046997.4,N
1512711775.6,286046997.2,N
1512711795.4,286046997.1,N
1512711815.2,286046995.8,N
1512711835.1,286046997.9,N
1512711836.0,286046997.9,N
1512711855.8,286046996.2,N
1512711875.7,286046995.1,N
1512711895.5,286046994.4,N
1512711915.3,286046994.7,N
1512711935.2,286046993.3,N
1512711955.0,286046996.3,N
1512711955.9,286046996.3,N
1512711975.8,286046995.8,N
1512711995.6,286046996.4,N
1512712015.4,286046996.0,N
1512712035.3,286046995.3,N
1512712055.1,286046997.6,N
1512712075.8,286046993.4,N
1512712095.7,286046995.1,N
1512712115.5,286046994.9,N
1512712135.4,286046993.5,N
1512712155.2,286046994.0,N
1512712175.0,286046993.7,N
1512712175.9,286046993.7,N
1512712195.8,286046998.0,N
1512712215.6,286046996.9,N
1512712235.5,286047000.6,N
1512712255.3,286046998.2,N
1512712275.1,286046998.4,N
1512712295.9,286046998.3,N
1512712315.7,286047001.2,N
1512712335.5,286047000.6,N
1512712355.4,286046996.6,N
1512712375.2,286046999.6,N
1512712395.1,286046996.8,N
1512712396.0,286046996.8,N
1512712415.8,286046995.7,N
1512712435.6,286046996.3,N
1512712455.5,286046993.4,Y
1512712475.3,286047000.5,P
1512712495.2,286047002.1,N
1512712515.9,286046998.3,N
1512712535.7,286046999.0,N
1512712555.6,286046998.5,N
1512712575.4,286047000.5,N
1512712595.3,286047000.2,N
1512712615.1,286047002.2,N
1512712616.0,286047002.2,N
1512712635.8,286046999.7,N
1512712655.7,286047001.9,N
1512712675.5,286047002.7,N
1512712695.3,286047000.3,N
1512712715.2,286046995.2,N
1512712735.0,286046997.9,N
1512712735.9,286046997.9,N
1512712755.8,286046995.1,N
1512712775.6,286046993.8,N
1512712795.4,286046998.9,N
